{"data":{"norad_id":55280,"intl_designator":"2023-010M","name":"STARLINK-5331","alt_names":[],"object_type":"PAYLOAD","status":"ACTIVE","operator":null,"country":"US","launch_date":"2023-01-19","launch_site_code":"AFWTR","launch_vehicle":null,"mission":null,"orbit_class":"UNKNOWN","rcs_meters":null,"size_class":null,"mass_kg":null,"dimensions":null,"purposes":["comms"],"wikipedia_slug":null,"has_3d_model":false,"image_url":null,"decayed_at":null,"tle_current":{"epoch":"2026-05-25T03:22:46.535232Z","epoch_age_seconds":62949,"freshness":"FRESH","line1":"1 55280U 23010M   26145.14081638  .00000785  00000+0  73552-4 0  9990","line2":"2 55280  69.9991 211.8404 0003577 272.0058  88.0691 14.98339082184227","mean_motion":14.98339082,"eccentricity":0.0003577,"inclination_deg":69.9991,"raan_deg":211.8404,"arg_perigee_deg":272.0058,"mean_anomaly_deg":88.0691,"bstar":7.3552e-5,"rev_number":18422,"period_min":96.106416584814,"perigee_km":569.54173179944,"apogee_km":574.51387970147,"semimajor_km":6950.1648057505,"source":"CELESTRAK","updated_at":"2026-05-25T13:38:17.732617Z"}}}